| time (UTC) | temp F | wind direction | speed MPH | gust MPH | rain 1hr in | rain 24hr in | rain mn in | humidity % | barometer mb |
| 20260507010204 | 58 | 180 | 2.0 | 5.0 | 0.00 | 0.06 | 0.06 | 93 | 1005.4 |
| 20260507002703 | 58 | 190 | 3.0 | 7.0 | 0.01 | 0.06 | 0.06 | 92 | 1005.3 |
| 20260507001204 | 58 | 181 | 3.0 | 7.0 | 0.01 | 0.06 | 0.06 | 92 | 1005.1 |
| 20260507000208 | 58 | 184 | 2.0 | 7.0 | 0.01 | 0.06 | 0.06 | 92 | 1005.1 |
| 20260506234204 | 58 | 173 | 2.0 | 7.0 | 0.01 | 0.06 | 0.06 | 92 | 1005.0 |
| 20260506233703 | 58 | 173 | 1.0 | 3.0 | 0.01 | 0.06 | 0.06 | 92 | 1005.0 |
| 20260506233204 | 58 | 173 | 2.0 | 6.0 | 0.00 | 0.05 | 0.05 | 92 | 1005.0 |
| 20260506232204 | 59 | 196 | 2.0 | 7.0 | 0.00 | 0.05 | 0.05 | 92 | 1005.0 |
| 20260506231704 | 59 | 183 | 2.0 | 5.0 | 0.00 | 0.05 | 0.05 | 92 | 1005.0 |
| 20260506230204 | 59 | 185 | 2.0 | 7.0 | 0.00 | 0.05 | 0.05 | 92 | 1005.1 |
| 20260506225703 | 59 | 190 | 2.0 | 5.0 | 0.00 | 0.05 | 0.05 | 92 | 1005.1 |
| 20260506225203 | 59 | 191 | 2.0 | 8.0 | 0.01 | 0.05 | 0.05 | 92 | 1005.1 |
| 20260506224705 | 59 | 171 | 3.0 | 9.0 | 0.01 | 0.05 | 0.05 | 92 | 1005.1 |
| 20260506224204 | 59 | 179 | 2.0 | 5.0 | 0.01 | 0.05 | 0.05 | 92 | 1005.1 |
| 20260506223704 | 59 | 179 | 2.0 | 12.0 | 0.01 | 0.05 | 0.05 | 92 | 1005.0 |
| 20260506220704 | 60 | 183 | 5.0 | 10.0 | 0.01 | 0.05 | 0.05 | 91 | 1005.3 |
| 20260506212705 | 60 | 186 | 1.0 | 6.0 | 0.02 | 0.04 | 0.04 | 90 | 1005.7 |
| 20260506211703 | 60 | 178 | 2.0 | 7.0 | 0.02 | 0.04 | 0.04 | 90 | 1005.7 |
| 20260506211206 | 60 | 178 | 3.0 | 9.0 | 0.02 | 0.04 | 0.04 | 90 | 1005.8 |
| 20260506210704 | 60 | 183 | 3.0 | 9.0 | 0.02 | 0.04 | 0.04 | 90 | 1005.7 |
| 20260506210203 | 60 | 192 | 3.0 | 9.0 | 0.02 | 0.04 | 0.04 | 89 | 1005.7 |
| 20260506204704 | 61 | 189 | 3.0 | 9.0 | 0.02 | 0.03 | 0.03 | 89 | 1005.8 |
| 20260506204204 | 61 | 176 | 3.0 | 7.0 | 0.02 | 0.03 | 0.03 | 89 | 1005.9 |
| 20260506203704 | 61 | 183 | 3.0 | 7.0 | 0.01 | 0.02 | 0.02 | 89 | 1005.9 |
| 20260506203204 | 61 | 1 | 3.0 | 9.0 | 0.01 | 0.02 | 0.02 | 88 | 1005.9 |
| 20260506202706 | 61 | 180 | 4.0 | 10.0 | 0.01 | 0.02 | 0.02 | 88 | 1006.0 |
| 20260506200204 | 62 | 0 | 4.0 | 9.0 | 0.02 | 0.02 | 0.02 | 87 | 1006.1 |
| 20260506193705 | 63 | 355 | 4.0 | 9.0 | 0.01 | 0.01 | 0.01 | 84 | 1006.1 |
| 20260506191704 | 65 | 0 | 5.0 | 14.0 | 0.00 | 0.00 | 0.00 | 81 | 1006.2 |
| 20260506190704 | 66 | 0 | 4.0 | 9.0 | 0.00 | 0.00 | 0.00 | 78 | 1006.2 |
| 20260506190206 | 66 | 354 | 5.0 | 12.0 | 0.00 | 0.00 | 0.00 | 77 | 1006.3 |
| 20260506185203 | 67 | 165 | 6.0 | 13.0 | 0.00 | 0.00 | 0.00 | 74 | 1006.3 |
| 20260506184704 | 68 | 208 | 6.0 | 12.0 | 0.00 | 0.00 | 0.00 | 73 | 1006.3 |
| 20260506184203 | 68 | 202 | 2.0 | 8.0 | 0.00 | 0.00 | 0.00 | 73 | 1006.3 |
| 20260506182203 | 69 | 14 | 3.0 | 14.0 | 0.00 | 0.00 | 0.00 | 70 | 1006.5 |
| 20260506180204 | 71 | 180 | 5.0 | 12.0 | 0.00 | 0.00 | 0.00 | 68 | 1006.6 |
| 20260506175704 | 71 | 304 | 4.0 | 8.0 | 0.00 | 0.00 | 0.00 | 67 | 1006.6 |
| 20260506173704 | 71 | 0 | 6.0 | 18.0 | 0.00 | 0.00 | 0.00 | 66 | 1006.7 |
| 20260506173204 | 72 | 0 | 6.0 | 13.0 | 0.00 | 0.00 | 0.00 | 65 | 1006.8 |
| 20260506172705 | 72 | 0 | 5.0 | 13.0 | 0.00 | 0.00 | 0.00 | 65 | 1006.8 |
| 20260506171204 | 72 | 188 | 7.0 | 15.0 | 0.00 | 0.00 | 0.00 | 64 | 1006.8 |
| 20260506170703 | 72 | 193 | 6.0 | 24.0 | 0.00 | 0.00 | 0.00 | 64 | 1006.8 |
| 20260506165205 | 73 | 184 | 5.0 | 16.0 | 0.00 | 0.00 | 0.00 | 64 | 1006.8 |
| 20260506164203 | 72 | 0 | 7.0 | 22.0 | 0.00 | 0.00 | 0.00 | 65 | 1006.9 |
| 20260506163205 | 72 | 0 | 5.0 | 17.0 | 0.00 | 0.00 | 0.00 | 66 | 1007.1 |
| 20260506162703 | 72 | 0 | 5.0 | 12.0 | 0.00 | 0.00 | 0.00 | 65 | 1007.2 |
| 20260506162205 | 72 | 0 | 8.0 | 16.0 | 0.00 | 0.00 | 0.00 | 65 | 1007.2 |
| 20260506161208 | 72 | 243 | 5.0 | 20.0 | 0.00 | 0.00 | 0.00 | 64 | 1007.3 |
| 20260506160204 | 73 | 199 | 5.0 | 14.0 | 0.00 | 0.00 | 0.00 | 64 | 1007.6 |
| 20260506154205 | 72 | 182 | 5.0 | 12.0 | 0.00 | 0.00 | 0.00 | 66 | 1008.0 |
| 20260506153204 | 72 | 0 | 6.0 | 20.0 | 0.00 | 0.00 | 0.00 | 65 | 1008.0 |
| 20260506152706 | 72 | 335 | 5.0 | 10.0 | 0.00 | 0.00 | 0.00 | 66 | 1008.1 |
| 20260506152204 | 72 | 185 | 6.0 | 15.0 | 0.00 | 0.00 | 0.00 | 67 | 1008.1 |
| 20260506151704 | 71 | 0 | 3.0 | 16.0 | 0.00 | 0.00 | 0.00 | 68 | 1008.1 |
| 20260506151204 | 71 | 356 | 6.0 | 14.0 | 0.00 | 0.00 | 0.00 | 68 | 1008.2 |
| 20260506145204 | 71 | 352 | 2.0 | 12.0 | 0.00 | 0.00 | 0.00 | 69 | 1008.2 |
| 20260506144704 | 71 | 354 | 5.0 | 10.0 | 0.00 | 0.00 | 0.00 | 68 | 1008.3 |
| 20260506144205 | 71 | 353 | 6.0 | 12.0 | 0.00 | 0.00 | 0.00 | 69 | 1008.4 |
| 20260506143704 | 70 | 193 | 6.0 | 10.0 | 0.00 | 0.00 | 0.00 | 68 | 1008.3 |
| 20260506142703 | 70 | 138 | 5.0 | 9.0 | 0.00 | 0.00 | 0.00 | 68 | 1008.1 |
| 20260506142205 | 70 | 182 | 5.0 | 10.0 | 0.00 | 0.00 | 0.00 | 69 | 1008.1 |
| 20260506141705 | 70 | 330 | 5.0 | 13.0 | 0.00 | 0.00 | 0.00 | 69 | 1008.2 |
| 20260506141204 | 70 | 194 | 7.0 | 17.0 | 0.00 | 0.00 | 0.00 | 70 | 1008.2 |
| 20260506140204 | 70 | 215 | 3.0 | 16.0 | 0.00 | 0.00 | 0.00 | 71 | 1008.1 |
| 20260506135203 | 69 | 187 | 3.0 | 8.0 | 0.00 | 0.00 | 0.00 | 72 | 1008.1 |
| 20260506134704 | 69 | 1 | 2.0 | 16.0 | 0.00 | 0.00 | 0.00 | 72 | 1008.0 |
| 20260506133206 | 68 | 357 | 5.0 | 12.0 | 0.00 | 0.00 | 0.00 | 75 | 1008.5 |
| 20260506132705 | 67 | 198 | 3.0 | 7.0 | 0.00 | 0.00 | 0.00 | 76 | 1008.6 |
| 20260506132204 | 67 | 190 | 3.0 | 10.0 | 0.00 | 0.00 | 0.00 | 77 | 1008.7 |
| 20260506131705 | 67 | 179 | 3.0 | 7.0 | 0.00 | 0.00 | 0.00 | 77 | 1008.7 |
| 20260506131204 | 66 | 140 | 3.0 | 9.0 | 0.00 | 0.00 | 0.00 | 78 | 1008.8 |
| 20260506130705 | 66 | 174 | 3.0 | 8.0 | 0.00 | 0.00 | 0.00 | 78 | 1008.7 |
| 20260506125704 | 65 | 219 | 5.0 | 12.0 | 0.00 | 0.00 | 0.00 | 80 | 1008.8 |
| 20260506125204 | 64 | 186 | 2.0 | 5.0 | 0.00 | 0.00 | 0.00 | 81 | 1008.8 |
| 20260506124704 | 64 | 192 | 2.0 | 9.0 | 0.00 | 0.00 | 0.00 | 81 | 1008.8 |
| 20260506124203 | 64 | 166 | 6.0 | 16.0 | 0.00 | 0.00 | 0.00 | 82 | 1008.8 |
| 20260506122704 | 63 | 197 | 2.0 | 7.0 | 0.00 | 0.00 | 0.00 | 83 | 1008.9 |
| 20260506122204 | 62 | 192 | 3.0 | 9.0 | 0.00 | 0.00 | 0.00 | 84 | 1009.0 |
| 20260506121205 | 62 | 194 | 2.0 | 6.0 | 0.00 | 0.00 | 0.00 | 85 | 1008.8 |
| 20260506120704 | 61 | 189 | 2.0 | 6.0 | 0.00 | 0.00 | 0.00 | 85 | 1008.7 |
| 20260506115704 | 61 | 190 | 3.0 | 6.0 | 0.00 | 0.00 | 0.00 | 86 | 1009.2 |
| 20260506115204 | 61 | 190 | 3.0 | 6.0 | 0.00 | 0.00 | 0.00 | 86 | 1009.1 |
| 20260506112704 | 60 | 191 | 3.0 | 5.0 | 0.00 | 0.00 | 0.00 | 86 | 1009.3 |
| 20260506112205 | 60 | 191 | 2.0 | 6.0 | 0.00 | 0.00 | 0.00 | 86 | 1009.3 |
| 20260506111704 | 60 | 192 | 3.0 | 7.0 | 0.00 | 0.00 | 0.00 | 87 | 1009.2 |
| 20260506110204 | 60 | 196 | 2.0 | 9.0 | 0.00 | 0.00 | 0.00 | 87 | 1009.1 |
| 20260506105703 | 59 | 186 | 3.0 | 7.0 | 0.00 | 0.00 | 0.00 | 87 | 1009.2 |
| 20260506105204 | 59 | 195 | 3.0 | 8.0 | 0.00 | 0.00 | 0.00 | 87 | 1009.2 |
| 20260506104704 | 59 | 202 | 2.0 | 3.0 | 0.00 | 0.00 | 0.00 | 86 | 1009.2 |
| 20260506104204 | 59 | 202 | 3.0 | 12.0 | 0.00 | 0.00 | 0.00 | 86 | 1009.2 |
| 20260506103705 | 59 | 163 | 4.0 | 6.0 | 0.00 | 0.00 | 0.00 | 86 | 1009.2 |
| 20260506103205 | 59 | 168 | 3.0 | 8.0 | 0.00 | 0.00 | 0.00 | 86 | 1009.3 |
| 20260506102204 | 59 | 173 | 3.0 | 6.0 | 0.00 | 0.00 | 0.00 | 86 | 1009.2 |
| 20260506101707 | 59 | 173 | 3.0 | 8.0 | 0.00 | 0.00 | 0.00 | 86 | 1009.2 |
| 20260506095204 | 60 | 24 | 3.0 | 8.0 | 0.00 | 0.00 | 0.00 | 85 | 1009.0 |
| 20260506094205 | 60 | 171 | 2.0 | 5.0 | 0.00 | 0.00 | 0.00 | 85 | 1008.9 |
| 20260506093704 | 60 | 171 | 2.0 | 5.0 | 0.00 | 0.00 | 0.00 | 85 | 1008.9 |
| 20260506092703 | 60 | 182 | 3.0 | 7.0 | 0.00 | 0.00 | 0.00 | 85 | 1008.9 |
| 20260506092204 | 60 | 200 | 2.0 | 6.0 | 0.00 | 0.00 | 0.00 | 85 | 1009.0 |
| 20260506091204 | 60 | 176 | 3.0 | 7.0 | 0.00 | 0.00 | 0.00 | 84 | 1008.9 |
| 20260506083704 | 61 | 178 | 3.0 | 7.0 | 0.00 | 0.00 | 0.00 | 83 | 1009.2 |
| 20260506082705 | 61 | 195 | 2.0 | 6.0 | 0.00 | 0.00 | 0.00 | 83 | 1009.2 |
| 20260506082204 | 61 | 170 | 3.0 | 7.0 | 0.00 | 0.00 | 0.00 | 83 | 1009.2 |
| 20260506081704 | 61 | 192 | 5.0 | 13.0 | 0.00 | 0.00 | 0.00 | 83 | 1009.2 |
| 20260506081204 | 61 | 184 | 3.0 | 7.0 | 0.00 | 0.00 | 0.00 | 83 | 1009.2 |
| 20260506080203 | 61 | 170 | 3.0 | 9.0 | 0.00 | 0.00 | 0.00 | 83 | 1009.2 |
| 20260506073203 | 61 | 215 | 3.0 | 5.0 | 0.00 | 0.00 | 0.00 | 82 | 1009.3 |
| 20260506070704 | 62 | 207 | 5.0 | 12.0 | 0.00 | 0.00 | 0.00 | 81 | 1009.1 |
| 20260506070205 | 62 | 165 | 3.0 | 9.0 | 0.00 | 0.00 | 0.00 | 81 | 1009.0 |
| 20260506062204 | 62 | 184 | 3.0 | 8.0 | 0.00 | 0.00 | 0.00 | 79 | 1009.0 |
| 20260506060704 | 63 | 180 | 3.0 | 12.0 | 0.00 | 0.00 | 0.00 | 78 | 1009.1 |
| 20260506050704 | 63 | 187 | 3.0 | 12.0 | 0.00 | 0.00 | 0.00 | 75 | 1009.5 |
| 20260506044706 | 64 | 187 | 3.0 | 10.0 | 0.00 | 0.00 | 0.00 | 74 | 1009.6 |
| 20260506043204 | 64 | 174 | 3.0 | 12.0 | 0.00 | 0.00 | 0.00 | 74 | 1009.5 |
| 20260506041704 | 64 | 167 | 6.0 | 12.0 | 0.00 | 0.00 | 0.00 | 73 | 1009.5 |
| 20260506041203 | 64 | 215 | 3.0 | 7.0 | 0.00 | 0.00 | 0.00 | 73 | 1009.5 |
| 20260506040704 | 64 | 190 | 3.0 | 3.0 | 0.00 | 0.00 | 0.00 | 73 | 1009.5 |
| 20260506040204 | 64 | 191 | 4.0 | 12.0 | 0.00 | 0.00 | 0.00 | 72 | 1009.5 |
| 20260506033704 | 64 | 181 | 5.0 | 12.0 | 0.00 | 0.00 | 0.00 | 72 | 1009.3 |
| 20260506033204 | 64 | 181 | 3.0 | 10.0 | 0.00 | 0.00 | 0.00 | 72 | 1009.4 |
| 20260506030204 | 63 | 180 | 5.0 | 12.0 | 0.00 | 0.00 | 0.00 | 72 | 1009.2 |
| 20260506024704 | 63 | 200 | 4.0 | 13.0 | 0.00 | 0.00 | 0.00 | 72 | 1009.1 |
| 20260506023204 | 63 | 179 | 2.0 | 7.0 | 0.00 | 0.00 | 0.00 | 72 | 1009.3 |
| 20260506021704 | 63 | 176 | 5.0 | 10.0 | 0.00 | 0.00 | 0.00 | 72 | 1009.3 |
| 20260506020204 | 63 | 175 | 2.0 | 6.0 | 0.00 | 0.00 | 0.00 | 71 | 1009.2 |
| 20260506015205 | 63 | 199 | 5.0 | 10.0 | 0.00 | 0.00 | 0.00 | 71 | 1009.1 |
| 20260506014704 | 63 | 209 | 3.0 | 10.0 | 0.00 | 0.00 | 0.00 | 70 | 1009.0 |
| 20260506014205 | 63 | 191 | 3.0 | 10.0 | 0.00 | 0.00 | 0.00 | 70 | 1009.0 |
| 20260506013204 | 64 | 174 | 3.0 | 7.0 | 0.00 | 0.00 | 0.00 | 70 | 1009.1 |
| 20260506010705 | 64 | 197 | 4.0 | 9.0 | 0.00 | 0.00 | 0.00 | 68 | 1008.7 |